K4BHH Weather Reports


Display with metric or nautical units.
time (UTC)temp
F
wind
direction
speed
MPH
gust
MPH
rain 1hr
in
rain 24hr
in
rain mn
in
humidity
%
barometer
mb
20210923215343 69 346 3.0 10.0 0.00 0.00 0.00 51 1017.3
20210923214343 69 321 1.0 6.0 0.00 0.00 0.00 51 1017.3
20210923213342 70 315 2.0 6.0 0.00 0.00 0.00 50 1017.3
20210923212340 69 344 3.0 7.0 0.00 0.00 0.00 50 1017.3
20210923211333 70 357 3.0 8.0 0.00 0.00 0.00 51 1017.3
20210923210327 69 6 3.0 7.0 0.00 0.00 0.00 50 1017.3
20210923205327 69 351 1.0 7.0 0.00 0.00 0.00 51 1017.3
20210923204326 69 300 2.0 10.0 0.00 0.00 0.00 51 1017.3
20210923203325 70 344 3.0 12.0 0.00 0.00 0.00 50 1017.3
20210923202324 69 286 2.0 11.0 0.00 0.00 0.00 51 1017.3
20210923201324 70 348 4.0 12.0 0.00 0.00 0.00 50 1017.3
20210923200323 70 335 2.0 13.0 0.00 0.00 0.00 50 1017.3
20210923195322 70 278 1.0 6.0 0.00 0.00 0.00 53 1017.6
20210923194322 70 240 3.0 6.0 0.00 0.00 0.00 53 1017.6
20210923193321 70 329 1.0 6.0 0.00 0.00 0.00 51 1017.6
20210923192320 69 260 2.0 9.0 0.00 0.00 0.00 54 1017.6
20210923191320 69 351 6.0 10.0 0.00 0.00 0.00 50 1017.9
20210923190319 70 7 4.0 8.0 0.00 0.00 0.00 53 1017.9
20210923185319 69 347 3.0 7.0 0.00 0.00 0.00 58 1018.3
20210923184318 69 355 4.0 6.0 0.00 0.00 0.00 56 1018.3
20210923183317 68 317 2.0 8.0 0.00 0.00 0.00 59 1018.6
20210923182317 68 347 4.0 11.0 0.00 0.00 0.00 59 1018.6
20210923181316 68 349 4.0 11.0 0.00 0.00 0.00 60 1019.0
20210923180315 67 5 6.0 9.0 0.00 0.00 0.00 63 1019.0
20210923175314 68 340 3.0 9.0 0.00 0.00 0.00 62 1019.0
20210923174314 67 314 1.0 9.0 0.00 0.00 0.00 63 1019.0
20210923173313 68 4 5.0 9.0 0.00 0.00 0.00 59 1019.3
20210923172312 67 3 3.0 8.0 0.00 0.00 0.00 60 1019.3
20210923171311 67 338 3.0 9.0 0.00 0.00 0.00 61 1019.3
20210923170310 66 292 2.0 8.0 0.00 0.00 0.00 61 1019.3
20210923165310 66 339 4.0 7.0 0.00 0.00 0.00 68 1019.6
20210923164309 66 307 2.0 8.0 0.00 0.00 0.00 66 1019.6
20210923163308 66 243 2.0 9.0 0.00 0.00 0.00 67 1019.6
20210923162308 66 244 2.0 7.0 0.00 0.00 0.00 66 1020.0
20210923161307 65 255 2.0 8.0 0.00 0.00 0.00 70 1020.0
20210923160306 64 338 2.0 9.0 0.00 0.00 0.00 72 1020.0
20210923155306 65 323 1.0 7.0 0.00 0.00 0.00 73 1020.0
20210923154305 63 352 2.0 7.0 0.00 0.00 0.00 78 1020.0
20210923153304 63 0 4.0 7.0 0.00 0.00 0.00 74 1020.0
20210923152305 62 6 1.0 5.0 0.00 0.00 0.00 80 1020.0
20210923151303 62 27 1.0 7.0 0.00 0.00 0.00 80 1020.0
20210923150302 61 40 1.0 6.0 0.00 0.00 0.00 82 1020.0
20210923145304 61 6 3.0 5.0 0.00 0.00 0.00 85 1019.6
20210923144300 59 252 2.0 5.0 0.00 0.00 0.00 89 1020.0
20210923143259 59 31 3.0 4.0 0.00 0.00 0.00 92 1019.6
20210923142258 58 265 0.0 3.0 0.00 0.00 0.00 94 1019.6
20210923141258 57 145 2.0 3.0 0.00 0.00 0.00 96 1019.6
20210923140257 56 122 1.0 1.0 0.00 0.01 0.00 96 1019.6
20210923135256 55 117 1.0 2.0 0.00 0.01 0.00 96 1019.6
20210923134256 54 127 0.0 3.0 0.00 0.01 0.00 96 1019.6
20210923133255 53 140 1.0 3.0 0.00 0.01 0.00 96 1019.3
20210923132255 52 122 1.0 2.0 0.00 0.03 0.00 95 1019.3
20210923131254 51 145 0.0 1.0 0.00 0.05 0.00 95 1019.3
20210923130253 50 145 0.0 1.0 0.00 0.07 0.00 95 1019.0
20210923125252 50 145 1.0 1.0 0.00 0.09 0.00 95 1019.0
20210923124251 49 145 1.0 1.0 0.00 0.11 0.00 95 1019.0
20210923123251 48 145 0.0 0.0 0.00 0.13 0.00 95 1019.0
20210923122250 46 145 0.0 0.0 0.00 0.13 0.00 96 1018.6
20210923121250 46 145 0.0 0.0 0.00 0.13 0.00 96 1018.6
20210923120249 46 145 0.0 0.0 0.00 0.13 0.00 96 1018.6
20210923115248 46 145 0.0 1.0 0.00 0.13 0.00 96 1018.3
20210923114247 46 145 0.0 1.0 0.00 0.13 0.00 96 1018.3
20210923113247 46 145 0.0 3.0 0.00 0.13 0.00 96 1018.3
20210923112246 46 145 0.0 3.0 0.00 0.13 0.00 96 1018.3
20210923111245 46 145 2.0 3.0 0.00 0.13 0.00 96 1017.9
20210923110244 46 159 0.0 0.0 0.00 0.13 0.00 96 1017.9
20210923105244 46 159 0.0 0.0 0.00 0.13 0.00 96 1017.6
20210923104243 46 159 0.0 0.0 0.00 0.13 0.00 96 1017.6
20210923103242 47 159 0.0 1.0 0.00 0.13 0.00 96 1017.6
20210923102241 47 159 0.0 1.0 0.00 0.13 0.00 96 1017.6
20210923101240 47 159 0.0 1.0 0.00 0.13 0.00 96 1017.6
20210923100240 47 301 0.0 0.0 0.00 0.13 0.00 96 1017.6
20210923095239 47 300 0.0 0.0 0.00 0.13 0.00 96 1017.6
20210923094238 47 301 0.0 0.0 0.00 0.13 0.00 96 1017.6
20210923093238 48 301 0.0 0.0 0.00 0.13 0.00 96 1017.6
20210923092237 48 300 0.0 0.0 0.00 0.13 0.00 96 1017.6
20210923091236 47 301 0.0 0.0 0.00 0.13 0.00 96 1017.9
20210923090235 48 301 0.0 0.0 0.00 0.13 0.00 96 1017.6
20210923085234 48 300 0.0 0.0 0.00 0.13 0.00 96 1017.6
20210923084234 49 301 0.0 0.0 0.00 0.13 0.00 96 1017.6
20210923083233 49 301 0.0 0.0 0.00 0.13 0.00 96 1017.6
20210923082232 49 301 0.0 0.0 0.00 0.13 0.00 96 1017.6
20210923081232 49 301 0.0 0.0 0.00 0.13 0.00 96 1017.6
20210923080231 49 301 0.0 0.0 0.00 0.13 0.00 95 1017.6
20210923075230 49 301 0.0 0.0 0.00 0.13 0.00 95 1017.6
20210923074229 49 300 0.0 0.0 0.00 0.13 0.00 95 1017.6
20210923073229 50 300 0.0 0.0 0.00 0.13 0.00 95 1017.6
20210923072228 50 300 0.0 1.0 0.00 0.13 0.00 95 1017.6
20210923071227 50 43 0.0 1.0 0.00 0.13 0.00 94 1017.6
20210923070227 50 42 0.0 1.0 0.00 0.13 0.00 94 1017.6
20210923065226 50 43 0.0 0.0 0.00 0.13 0.00 93 1017.6
20210923064225 51 43 0.0 0.0 0.00 0.13 0.00 93 1017.6
20210923063224 51 42 0.0 0.0 0.00 0.13 0.00 92 1017.6
20210923062224 52 43 0.0 1.0 0.00 0.13 0.00 90 1017.9
20210923061223 52 43 0.0 1.0 0.00 0.13 0.00 89 1017.9
20210923060223 53 300 0.0 1.0 0.00 0.13 0.00 89 1018.3
20210923055222 53 1 1.0 7.0 0.00 0.13 0.00 88 1017.9
20210923054221 53 348 2.0 8.0 0.00 0.13 0.00 88 1018.3
20210923053221 53 354 2.0 8.0 0.00 0.13 0.00 89 1018.3
20210923052220 53 344 4.0 7.0 0.00 0.13 0.00 90 1018.3
20210923051220 53 355 3.0 5.0 0.00 0.13 0.00 92 1018.3
20210923050219 52 350 2.0 4.0 0.00 0.13 0.00 93 1018.3
20210923045219 52 340 1.0 1.0 0.00 0.13 0.13 93 1018.6
20210923044218 52 340 0.0 0.0 0.00 0.13 0.13 93 1018.3
20210923043217 52 340 0.0 0.0 0.00 0.13 0.13 92 1018.6
20210923042217 53 340 0.0 0.0 0.00 0.13 0.13 91 1018.3
20210923041216 54 340 0.0 1.0 0.00 0.13 0.13 89 1018.3
20210923040215 54 340 0.0 1.0 0.00 0.13 0.13 88 1018.3
20210923035215 55 340 0.0 3.0 0.00 0.13 0.13 87 1018.3
20210923034214 55 351 2.0 7.0 0.00 0.13 0.13 86 1018.3
20210923033214 56 350 3.0 8.0 0.00 0.13 0.13 86 1018.3
20210923032213 56 358 2.0 6.0 0.00 0.13 0.13 86 1018.3
20210923031212 56 328 1.0 6.0 0.00 0.13 0.13 86 1018.3
20210923030211 56 359 1.0 7.0 0.00 0.13 0.13 85 1018.3
20210923025211 56 343 4.0 8.0 0.00 0.13 0.13 85 1018.3
20210923024210 56 349 3.0 8.0 0.00 0.13 0.13 86 1018.3
20210923023209 57 348 2.0 8.0 0.00 0.13 0.13 86 1018.3
20210923022209 57 344 4.0 8.0 0.00 0.13 0.13 86 1018.3
20210923021208 57 349 4.0 10.0 0.00 0.13 0.13 86 1018.3
20210923020207 56 351 2.0 4.0 0.00 0.13 0.13 86 1017.9
20210923015207 56 293 0.0 4.0 0.00 0.13 0.13 86 1018.3
20210923014206 57 339 0.0 6.0 0.00 0.13 0.13 85 1018.3
20210923013205 57 319 0.0 6.0 0.00 0.13 0.13 84 1018.3
20210923012205 58 300 2.0 4.0 0.00 0.13 0.13 84 1017.9
20210923011204 58 320 1.0 7.0 0.00 0.13 0.13 83 1017.9
20210923010203 59 339 2.0 8.0 0.00 0.13 0.13 81 1017.6
20210923005203 59 335 3.0 9.0 0.00 0.13 0.13 81 1017.6
20210923004202 59 341 4.0 8.0 0.00 0.13 0.13 82 1017.6
20210923003201 59 339 4.0 6.0 0.00 0.13 0.13 83 1017.3
20210923002201 60 322 1.0 6.0 0.00 0.13 0.13 83 1017.3
20210923001159 60 352 2.0 6.0 0.00 0.13 0.13 83 1017.3
20210923000159 61 317 1.0 8.0 0.00 0.13 0.13 81 1016.9
20210922235158 61 344 3.0 8.0 0.00 0.13 0.13 79 1017.3
20210922234158 62 314 2.0 9.0 0.00 0.13 0.13 77 1017.3
20210922233157 62 317 2.0 12.0 0.00 0.13 0.13 75 1016.9
20210922232156 63 320 3.0 13.0 0.00 0.13 0.13 73 1016.9
20210922231156 64 348 5.0 15.0 0.00 0.13 0.13 73 1016.9
20210922230155 64 322 4.0 17.0 0.00 0.13 0.13 74 1016.6
20210922225155 66 340 5.0 18.0 0.00 0.13 0.13 72 1016.3
20210922224154 67 346 9.0 17.0 0.00 0.13 0.13 71 1016.3
20210922223153 68 314 3.0 12.0 0.00 0.13 0.13 68 1016.3
20210922222153 69 327 4.0 10.0 0.00 0.13 0.13 67 1016.3
20210922221152 70 296 2.0 11.0 0.00 0.13 0.13 66 1015.9
20210922220151 69 307 5.0 12.0 0.00 0.13 0.13 64 1015.9